DateTimeUTC,F1_A11,F1_S11,BsB_S11,BsG_S11,BsR_S11,BbsB_S11,BbsG_S11,BbsR_S11,BaB_A11,BaG_A11,BaR_A11,Tu_S11,T_S11,Uu_S11,U_S11,P_S11,T1_A11
2021-02-03T06:00:00Z,00000200,21000000,,,,,,,-000.45,-000.22,-000.26,15.6,22.9,,00.0,0631.0,30.9
2021-02-03T06:01:00Z,00000200,21000000,,,,,,,0000.06,0000.24,0000.08,15.6,23.0,,00.0,0631.0,30.9
2021-02-03T06:02:00Z,00000200,21000000,,,,,,,-000.17,-000.29,-000.14,15.6,23.0,,00.0,0631.0,30.9
2021-02-03T06:03:00Z,00000200,61000000,,,,,,,-000.07,-000.20,0000.26,15.6,23.0,,00.0,0631.0,30.9
2021-02-03T06:04:00Z,00000200,41000000,0000.08,-000.25,0000.22,0000.18,0000.23,0000.06,0000.45,0000.74,-000.10,16.1,22.9,,00.0,0631.9,30.9
2021-02-03T06:05:00Z,00000200,01000000,0000.13,-000.06,-000.04,-000.20,0000.10,-000.05,0000.13,-000.25,0000.09,16.2,22.9,,00.0,0632.0,30.9
2021-02-03T06:06:00Z,00000200,01000000,0000.68,0000.33,-000.08,0000.67,0000.13,0000.06,-000.12,0000.14,0000.01,16.2,22.9,,00.0,0631.9,30.9
2021-02-03T06:07:00Z,00000200,01000000,0001.34,-000.16,-000.01,0000.33,-000.06,0000.30,0000.59,-000.01,0000.32,16.3,22.9,,00.0,0631.9,30.9
2021-02-03T06:08:00Z,00000200,01000000,-000.59,0000.25,-000.05,0000.62,0000.14,0000.05,-000.53,-000.16,-000.28,16.3,22.9,,00.0,0631.9,30.9
2021-02-03T06:09:00Z,00000200,01000000,0000.66,0000.39,0000.09,0000.31,0000.06,0000.22,-000.01,-000.23,-000.01,16.3,22.9,,00.0,0631.9,30.9
2021-02-03T06:10:00Z,00000200,01000000,0001.02,-000.34,0000.10,0000.27,0000.06,0000.20,0000.49,0000.59,0000.31,16.2,22.9,,00.0,0631.9,30.9
2021-02-03T06:11:00Z,00000200,01000000,0000.46,0000.10,-000.08,0000.35,0000.29,-000.28,-000.20,0000.05,-000.42,16.2,22.9,,00.0,0632.0,30.9
2021-02-03T06:12:00Z,00000200,01000000,0000.94,0000.15,0000.28,0000.59,0000.11,0000.05,-000.20,-000.12,0000.24,16.1,22.9,,00.0,0632.0,30.9
2021-02-03T06:13:00Z,00000200,01000000,0000.57,0000.11,-000.05,0000.32,0000.24,0000.13,0000.30,0000.00,-000.23,16.0,22.8,,00.0,0631.9,30.9
2021-02-03T06:14:00Z,00000200,01000000,0000.81,0000.01,0000.09,0000.25,0000.11,0000.14,0000.02,0000.23,0000.40,15.9,22.8,,00.0,0632.0,30.8
2021-02-03T06:15:00Z,00000200,01000000,-000.13,-000.17,0000.07,0000.34,0000.16,0000.26,0000.00,-000.33,-000.18,15.8,22.7,,00.0,0631.9,30.8
2021-02-03T06:16:00Z,00000200,01000000,0000.39,-000.15,-000.14,0000.48,0000.12,0000.26,0000.02,0000.04,-000.03,15.8,22.7,,00.0,0631.9,30.8
2021-02-03T06:17:00Z,00000200,01000000,0000.70,-000.05,-000.07,0000.52,0000.07,-000.01,0000.13,0000.17,0000.12,15.8,22.7,,00.0,0631.9,30.8
2021-02-03T06:18:00Z,00000200,01000000,0000.95,0000.01,0000.12,0000.58,-000.07,0000.03,0000.25,0000.50,0000.10,15.8,22.7,,00.0,0631.9,30.8
2021-02-03T06:19:00Z,00000200,01000000,0000.44,-000.18,-000.09,-000.24,-000.03,-000.24,-000.09,-000.29,0000.03,15.8,22.7,,00.0,0631.9,30.8
2021-02-03T06:20:00Z,00000200,01000000,0000.21,0000.00,-000.06,0000.07,0000.20,0000.04,0000.05,0000.17,0000.16,15.9,22.7,,00.0,0631.8,30.8
2021-02-03T06:21:00Z,00000200,01000000,0000.15,0000.06,0000.02,0000.41,0000.10,0000.30,0000.18,-000.01,0000.51,15.9,22.7,,00.0,0631.8,30.9
2021-02-03T06:22:00Z,00000200,01000000,0000.64,0000.09,0000.10,0000.51,-000.13,0000.17,0000.16,0000.19,-000.35,15.9,22.7,,00.0,0631.8,30.8
2021-02-03T06:23:00Z,00000200,01000000,0000.64,0000.15,-000.03,0000.08,0000.14,-000.01,0000.11,0000.03,0000.12,15.9,22.7,,00.0,0631.8,30.8
2021-02-03T06:24:00Z,00000200,01000000,0000.33,-000.16,-000.00,0000.26,0000.06,0000.01,-000.01,0000.47,-000.10,15.8,22.7,,00.0,0631.8,30.8
2021-02-03T06:25:00Z,00000200,01000000,0000.14,0000.20,-000.11,-000.08,-000.17,-000.13,0000.04,-000.48,-000.00,15.7,22.6,,00.0,0631.8,30.8
2021-02-03T06:26:00Z,00000200,01000000,0000.27,0000.19,-000.04,0000.55,0000.10,-000.02,0000.03,0000.24,-000.01,15.6,22.6,,00.0,0631.8,30.8
2021-02-03T06:27:00Z,00000200,01000000,0000.58,0000.20,-000.20,0000.86,0000.16,0000.24,-000.02,0000.15,-000.04,15.6,22.6,,00.0,0631.8,30.8
2021-02-03T06:28:00Z,00000200,01000000,0000.66,0000.12,-000.16,0000.35,-000.21,0000.18,0000.11,-000.32,0000.22,15.5,22.5,,00.0,0631.8,30.8
2021-02-03T06:29:00Z,00000200,01000000,0000.73,-000.02,0000.06,0000.38,0000.14,0000.17,0000.20,0000.19,-000.04,15.4,22.5,,00.0,0631.8,30.8
2021-02-03T06:30:00Z,00000200,01000000,0000.80,0000.14,0000.37,0000.46,0000.15,0000.04,0000.06,-000.39,-000.06,15.3,22.4,,00.0,0631.8,30.8
2021-02-03T06:31:00Z,00000200,01000000,-000.24,0000.01,-000.03,0000.37,0000.36,0000.13,0000.06,0000.50,-000.15,15.3,22.4,,00.0,0631.7,30.8
2021-02-03T06:32:00Z,00000200,01000000,0000.28,0000.03,-000.01,0000.28,0000.03,0000.25,0000.12,0000.32,0000.47,15.3,22.3,,00.0,0631.6,30.8
2021-02-03T06:33:00Z,00000200,01000000,0000.47,-000.09,0000.07,0000.09,0000.19,0000.13,0000.56,0000.21,-000.01,15.4,22.4,,00.0,0631.5,30.8
2021-02-03T06:34:00Z,00000200,01000000,0000.53,0000.01,0000.28,0000.70,0000.12,0000.09,0000.21,0000.78,0000.66,15.4,22.4,,00.0,0631.5,30.8
2021-02-03T06:35:00Z,00000200,01000000,0000.44,0000.12,-000.25,0000.98,0000.07,0000.02,0000.35,-000.50,0000.29,15.5,22.4,,00.0,0631.5,30.8
2021-02-03T06:36:00Z,00000200,01000000,0000.42,0000.07,0000.05,0000.54,0000.17,0000.19,0000.37,0000.77,0000.26,15.5,22.4,,00.0,0631.4,30.8
2021-02-03T06:37:00Z,00000200,01000000,0000.47,0000.00,0000.00,0000.79,0000.10,-000.04,0000.30,0000.58,-000.10,15.6,22.5,,00.0,0631.3,30.8
2021-02-03T06:38:00Z,00000200,01000000,0000.53,0000.04,0000.04,0000.26,0000.30,0000.29,0000.44,-000.02,0000.40,15.7,22.5,,00.0,0631.3,30.8
2021-02-03T06:39:00Z,00000200,01000000,0000.69,0000.09,0000.07,0000.46,0000.04,0000.14,0000.59,0000.67,0000.00,15.7,22.5,,00.0,0631.3,30.9
2021-02-03T06:40:00Z,00000200,01000000,0000.46,0000.30,0000.15,0000.43,0000.16,0000.05,0000.14,-000.13,0000.03,15.7,22.5,,00.0,0631.3,30.8
2021-02-03T06:41:00Z,00000200,01000000,0000.38,-000.01,0000.19,-000.15,0000.07,-000.01,0000.16,0000.17,0000.23,15.8,22.5,,00.0,0631.3,30.8
2021-02-03T06:42:00Z,00000200,01000000,0000.10,0000.18,-000.07,0000.33,0000.11,0000.08,0000.17,0000.21,0000.15,15.7,22.5,,00.0,0631.3,30.8
2021-02-03T06:43:00Z,00000200,01000000,0000.81,0000.13,0000.19,0000.64,0000.21,0000.22,-000.27,0000.18,-000.02,15.6,22.5,,00.0,0631.3,30.8
2021-02-03T06:44:00Z,00000200,01000000,-000.08,0000.27,0000.02,-000.12,0000.00,0000.06,0000.32,0000.20,0000.02,15.6,22.4,,00.0,0631.3,30.8
2021-02-03T06:45:00Z,00000200,01000000,0000.22,0000.04,0000.14,0000.59,0000.02,0000.18,0000.05,-000.21,0000.11,15.5,22.4,,00.0,0631.3,30.8
2021-02-03T06:46:00Z,00000200,01000000,0000.08,0000.07,0000.18,0000.55,0000.02,0000.12,-000.05,-000.35,-000.54,15.4,22.3,,00.0,0631.3,30.8
2021-02-03T06:47:00Z,00000200,01000000,0000.72,-000.10,-000.01,0000.55,0000.25,0000.08,0000.41,0000.42,0000.44,15.4,22.3,,00.0,0631.3,30.8
2021-02-03T06:48:00Z,00000200,01000000,0000.46,0000.36,-000.01,0000.42,0000.17,0000.17,-000.11,0000.16,0000.01,15.5,22.3,,00.0,0631.3,30.8
2021-02-03T06:49:00Z,00000200,01000000,0000.39,0000.03,-000.07,0000.63,0000.10,0000.07,0000.24,-000.16,0000.35,15.5,22.4,,00.0,0631.3,30.8
2021-02-03T06:50:00Z,00000200,01000000,0000.77,0000.23,-000.05,0000.08,-000.05,0000.31,-000.25,-000.02,-000.07,15.6,22.4,,00.0,0631.3,30.8
2021-02-03T06:51:00Z,00000200,01000000,0000.19,0000.07,-000.03,0000.43,0000.31,-000.00,0000.32,0000.65,0000.27,15.7,22.4,,00.0,0631.3,30.8
2021-02-03T06:52:00Z,00000200,01000000,-000.14,-000.07,-000.16,0000.12,0000.19,-000.20,0000.19,-000.09,0000.00,15.7,22.5,,00.0,0631.4,30.9
2021-02-03T06:53:00Z,00000200,01000000,-000.28,0000.02,-000.21,0000.15,0000.12,0000.09,-000.25,-000.25,-000.07,15.8,22.5,,00.0,0631.4,30.9
2021-02-03T06:54:00Z,00000200,01000000,-000.11,-000.02,0000.08,0000.70,0000.19,0000.10,0000.02,0000.14,-000.03,15.8,22.5,,00.0,0631.4,30.9
2021-02-03T06:55:00Z,00000200,01000000,0000.20,-000.08,-000.23,0000.14,0000.20,0000.02,-000.08,0000.08,0000.04,15.9,22.5,,00.0,0631.4,30.9
2021-02-03T06:56:00Z,00000200,01000000,-000.16,0000.16,-000.08,0000.47,0000.01,-000.03,0000.23,0000.45,0000.10,15.9,22.6,,00.0,0631.4,30.9
2021-02-03T06:57:00Z,00000200,41000000,,,,,,,-001.20,-001.71,-000.92,16.0,22.6,,00.0,0631.4,30.9
2021-02-03T06:58:00Z,00000200,61000000,,,,,,,0000.10,0000.39,0000.06,15.6,22.7,,00.0,0630.5,30.9
2021-02-03T06:59:00Z,00000200,21000000,,,,,,,0000.54,0000.58,0000.37,15.5,22.8,,00.0,0630.4,30.9
